Location: Cussy
(47.0410°N, 4.6412°E)
Time: 18:41:23
(UTC+00:00)

COSMO-SKYMED 1 - Visible Passes

Search period start: 11 April 2021 00:00
Search period end: 21 April 2021 00:00
Orbit: 621 x 624 km, 97.9° (Epoch: 11 April)

Date Brightness Start Highest point End Pass type
(mag) Time Alt. Az. Time Alt. Az. Time Alt. Az.
11 Apr 6.1 03:21:56 10° E 03:24:04 14° ENE 03:26:12 10° NNE visible
12 Apr 5.7 03:38:48 10° ESE 03:41:53 19° ENE 03:44:58 10° NNE visible
13 Apr 5.0 03:56:05 10° ESE 03:59:45 27° ENE 04:03:26 10° N visible
13 Apr 5.2 18:52:19 10° N 18:55:59 27° WNW 18:59:36 10° WSW visible
14 Apr 4.2 04:13:37 10° SE 04:17:39 40° ENE 04:21:44 10° N visible
14 Apr 5.8 19:10:49 10° NNW 19:13:50 19° WNW 19:16:51 10° WSW visible
15 Apr 6.1 19:29:37 10° NNW 19:31:39 13° WNW 19:33:40 10° W visible
16 Apr 6.2 03:16:29 10° E 03:18:08 12° ENE 03:19:47 10° NE visible
17 Apr 5.9 03:33:08 10° ESE 03:35:56 17° ENE 03:38:46 10° NNE visible
18 Apr 5.3 03:50:18 10° ESE 03:53:48 24° ENE 03:57:18 10° N visible
19 Apr 4.6 04:07:46 10° SE 04:11:42 35° ENE 04:15:40 10° N visible
19 Apr 5.8 19:04:39 10° NNW 19:07:54 21° WNW 19:11:09 10° WSW visible
20 Apr 6.1 19:23:19 10° NNW 19:25:44 15° WNW 19:28:10 10° W visible
